GALAXY 34 (G-34)

Last updated on Mon Jul 07 2025 00:02:47 GMT+0000 (Coordinated Universal Time)

1 54027U 22128B 25187.53857711 .00000076 00000+0 00000+0 0 9994 2 54027 0.0108 56.1002 0001731 52.6902 240.8447 1.00271125 10446
UTC large
Height (km)
Speed (km/s)
/
Latitude / Longitude
Inclination (degrees)
Orbital Period (minutes)
Azimuth
Elevation
Range (km)
Doppler Factor

Next 0 passes for location: London (51.5072 / 0.1276)

Sorry there are no passes over London.